Helicity
47 47 47 61 66 56 42 45 50 56 54 46 33 24 33 32 29 -127 -126 -77 -79 -3 -2 -42 -54 -14 12 54 50 42 74 39 42 154 44 13 26 -2 28 31 -6 31 40 56 45
69 67 61 48 45 45 45 31 33 40 38 43 30 20 35 24 2 24 -41 81 75 13 -36 -73 -45 -25 37 57 45 24 60 83 49 40 61 3 26 29 9 29 26 28 86 95 43
74 76 77 74 62 44 28 32 25 19 28 29 31 22 29 40 81 23 122 33 76 49 -40 -52 -12 -27 38 41 28 37 91 163 17 48 43 27 21 25 19 19 43 32 63 56 55
86 83 77 78 79 64 40 29 18 18 13 18 28 24 24 -14 79 65 59 -2 42 6 -11 -76 -22 -20 35 32 24 28 71 67 26 26 -3 35 34 20 -2 39 37 33 51 56 50
92 96 90 82 75 70 51 31 28 22 15 13 10 15 -7 -1 40 161 71 16 18 -27 -51 -68 -46 -12 5 36 19 2 33 11 2 28 5 37 36 35 10 22 31 57 45 32 31
77 87 93 91 84 75 61 43 33 31 26 16 5 -6 14 -12 12 71 19 31 -5 -26 -39 -39 -64 -20 17 27 23 -3 -8 20 12 31 6 -6 49 16 47 16 52 59 34 18 22
63 69 79 91 110 107 81 50 43 35 32 9 3 19 11 39 24 62 33 -4 12 -9 -30 -30 10 -40 -6 27 25 33 5 8 7 25 27 -31 43 5 81 34 47 35 18 15 17
74 69 75 88 100 101 91 87 52 34 1 4 19 28 7 8 39 72 23 -4 17 17 -5 5 -37 -13 -8 6 38 -0 20 22 54 20 37 -10 63 58 37 40 29 -3 -2 10 25
67 74 71 108 124 104 80 107 50 11 11 11 8 22 -3 120 31 19 20 -4 11 22 28 63 1 -88 -33 -3 -3 -1 2 33 80 38 54 8 -7 53 50 30 17 -7 -33 -11 8
53 83 63 107 122 113 102 82 30 17 -1 25 46 19 32 26 43 48 25 -15 32 48 48 3 -50 -112 -118 -57 -46 -15 13 16 81 64 12 1 32 41 48 19 14 11 -16 -47 -22
44 75 103 136 149 127 60 28 40 45 48 37 46 6 79 12 57 34 52 23 12 44 33 19 17 -37 -64 -45 -33 8 6 9 4 104 1 23 25 68 49 11 7 32 -3 2 -35
64 56 117 167 221 114 20 38 84 89 -4 17 4 -3 -43 -16 41 36 50 44 51 47 20 71 24 -58 -40 -21 -38 1 -3 -5 12 94 17 10 11 35 87 8 2 4 25 15 6
100 59 106 190 258 30 68 37 77 84 38 -3 39 31 1 37 55 26 27 48 40 37 29 40 65 -8 -12 -34 -25 -34 -22 -32 -14 138 -31 19 4 24 53 77 13 9 9 33 20
103 94 92 192 65 123 68 76 25 44 72 53 73 86 74 64 73 6 12 51 -11 27 -2 11 -1 46 59 8 -28 -29 -30 26 -16 108 46 36 -4 63 33 47 79 53 64 67 97
92 158 81 117 101 104 144 53 30 25 91 121 140 106 97 71 106 48 -3 38 33 39 24 7 2 24 59 -30 -15 -25 -28 -33 11 51 122 19 -0 28 -4 62 73 64 55 60 56
94 142 113 109 51 68 56 47 70 126 127 127 136 77 88 14 15 99 31 10 -6 -3 8 -27 35 -3 41 28 52 -14 14 12 10 28 2 24 66 -10 178 -23 52 67 69 75 50
108 147 134 44 79 110 92 123 188 267 168 151 128 88 49 67 45 86 58 75 75 54 64 30 -20 25 -8 54 49 25 18 50 41 55 -18 17 77 83 28 47 41 9 58 93 112
120 201 52 36 42 24 117 197 286 279 70 87 48 64 80 35 65 73 85 72 27 42 48 73 83 -29 33 28 28 38 22 74 77 48 51 18 21 -28 -2 25 44 41 19 83 98
150 69 75 52 48 65 165 288 368 162 115 41 58 68 63 15 26 54 64 75 62 13 35 75 64 34 7 22 18 28 73 18 12 24 29 38 53 14 57 55 49 34 14 44 94
73 79 64 34 73 94 247 205 185 70 57 60 127 53 77 55 66 68 47 29 31 40 -19 17 55 57 36 26 30 -9 63 64 65 52 41 30 27 55 66 45 15 35 15 45 48
55 123 142 80 58 173 335 208 128 60 70 64 112 35 23 28 30 64 42 21 25 22 39 -3 25 30 42 104 24 57 24 78 66 61 54 49 37 43 45 39 13 3 1 53 40
87 110 113 57 172 217 243 133 123 114 39 113 118 137 55 43 64 62 73 -1 51 26 38 26 43 88 25 28 48 12 34 34 84 77 76 22 34 68 45 60 21 52 56 27 86
122 120 28 50 195 212 140 126 60 100 54 45 64 69 100 82 85 59 54 21 96 42 16 52 47 83 54 19 42 48 -10 1 46 62 88 83 64 27 61 55 49 47 23 17 51
109 157 57 65 72 91 126 83 116 44 68 106 92 63 48 97 54 65 48 30 54 53 34 134 36 47 87 57 36 47 35 -10 26 100 99 72 38 35 42 83 50 41 42 45 51
67 101 81 231 33 163 235 270 149 200 79 41 54 105 65 72 52 64 30 38 32 61 46 81 66 23 28 21 14 25 32 30 18 44 70 70 44 40 39 53 59 49 32 35 27
83 55 83 105 125 124 91 220 267 126 74 200 138 50 51 88 60 44 26 43 35 59 57 54 74 49 58 16 22 27 28 50 40 28 42 41 43 43 40 32 43 58 29 31 41
56 24 46 48 74 67 102 64 99 20 63 100 125 95 353 120 84 147 235 104 31 61 50 47 69 69 62 28 32 37 17 16 39 52 51 60 55 40 34 39 61 72 57 47 23
Wind_Speed
49 47 46 50 55 57 57 56 53 54 58 58 58 56 55 55 52 18 44 56 50 49 50 51 58 53 48 45 43 38 36 19 35 27 29 24 26 26 25 27 23 15 19 35 40
57 56 53 49 49 52 57 57 57 55 52 56 59 59 56 57 48 49 50 16 40 47 63 59 45 57 47 46 46 38 29 25 26 31 25 22 25 25 27 26 23 14 26 38 42
60 60 59 57 52 47 47 55 57 56 55 53 55 58 57 55 46 20 23 26 8 19 73 70 65 51 52 54 49 46 29 36 23 29 19 21 20 23 22 21 26 24 32 40 44
60 60 61 61 60 57 54 49 47 54 56 54 55 53 56 48 35 24 21 18 6 20 67 66 68 55 57 60 53 50 11 23 27 21 16 21 20 17 16 17 25 28 37 45 47
62 62 62 63 62 61 60 57 52 47 49 54 52 56 50 44 58 19 21 22 12 57 68 68 66 61 53 57 58 51 47 31 33 21 35 16 17 17 13 13 26 27 41 51 52
65 66 66 65 64 63 63 62 58 53 49 43 36 38 31 59 41 23 24 10 18 41 61 72 65 69 61 56 58 39 46 49 36 16 14 12 15 13 11 12 24 31 44 54 59
68 68 68 67 68 67 66 66 63 59 54 44 9 14 28 10 25 18 23 36 15 26 57 73 80 61 66 60 63 61 54 46 16 10 5 22 19 35 18 14 22 37 46 56 63
72 73 72 71 71 70 68 68 67 62 45 26 19 17 26 8 12 3 4 47 48 38 65 63 72 68 65 65 64 60 61 57 9 10 5 35 28 27 18 27 29 47 56 61 66
75 75 74 75 76 75 72 68 64 43 31 23 23 18 23 19 11 11 10 5 28 26 23 49 64 68 60 64 60 63 55 56 2 4 4 40 48 13 20 28 41 48 58 63 65
77 78 78 76 76 77 75 65 42 29 22 20 25 26 11 5 11 15 13 4 7 18 19 18 20 42 54 50 54 46 45 54 13 6 9 38 48 12 19 33 38 46 54 63 66
78 80 82 81 81 78 68 40 39 32 12 11 24 10 27 16 14 10 10 4 7 11 26 24 31 53 50 53 48 60 42 59 12 12 32 32 60 3 9 33 43 41 55 51 60
81 82 84 84 83 73 47 45 46 49 62 17 36 41 33 19 10 10 5 2 11 20 24 30 47 52 46 43 39 63 64 56 45 14 31 21 50 20 14 48 45 46 49 57 55
85 84 86 87 80 47 55 41 40 56 45 55 24 23 23 20 26 17 22 19 15 21 27 39 36 37 38 37 37 57 65 41 21 14 23 46 65 19 22 12 43 46 44 47 56
86 85 84 89 54 60 44 38 42 53 48 34 20 25 11 10 24 17 14 34 23 22 25 38 36 40 70 47 38 41 50 73 39 30 69 25 75 32 20 30 15 25 28 35 41
87 88 83 74 62 47 47 45 48 41 49 24 12 8 5 9 17 9 11 28 26 19 23 31 37 42 54 64 46 40 29 28 68 41 30 58 68 63 24 23 21 17 23 29 32
88 89 85 66 42 44 55 48 39 39 44 30 17 10 8 15 27 17 12 23 17 23 25 29 25 41 54 76 65 47 69 66 61 79 99 87 51 86 22 23 24 16 19 23 27
90 89 86 63 41 37 39 35 44 50 34 34 25 20 21 19 21 20 20 26 28 27 31 27 38 34 47 64 75 75 67 80 90 87 105 80 68 42 61 37 31 30 18 21 27
92 96 62 43 43 47 38 36 62 48 45 33 26 27 32 28 28 28 28 31 34 31 33 39 42 43 36 53 66 71 66 77 83 75 78 49 101 97 78 42 44 32 33 14 24
97 70 63 50 39 37 37 64 65 54 53 47 40 48 40 46 46 39 39 40 40 41 44 39 44 29 44 45 67 75 91 75 83 69 87 69 50 87 60 64 54 62 46 36 16
80 73 63 41 29 34 56 80 64 58 51 52 59 49 53 48 49 54 45 49 55 44 45 50 59 37 35 44 57 89 77 87 96 108 101 81 81 64 51 50 55 33 42 25 16
68 67 37 27 28 48 78 77 72 81 80 69 66 67 67 68 66 59 58 66 57 57 47 51 58 51 38 52 55 61 91 90 94 97 101 97 84 44 45 38 35 27 34 19 22
65 74 31 28 56 60 82 76 77 86 76 81 81 83 84 81 76 73 66 65 43 53 56 50 55 61 58 46 45 64 75 98 94 100 99 107 90 31 29 28 46 59 59 41 12
70 74 55 44 83 79 76 82 78 83 87 87 85 92 87 94 85 80 73 64 48 55 57 45 66 64 63 63 49 55 65 77 103 94 102 103 100 90 39 43 37 47 64 70 25
64 73 56 46 61 76 83 86 84 73 83 88 90 93 93 104 93 87 85 71 57 55 54 53 62 73 66 60 51 52 61 80 87 109 105 113 97 73 69 39 46 41 53 54 44
50 61 56 67 53 63 67 71 78 79 76 84 86 95 97 95 99 93 85 69 75 65 70 62 73 70 72 75 55 58 54 70 92 97 115 103 96 89 84 63 54 57 69 69 54
50 53 55 66 76 81 69 75 75 75 76 86 83 86 94 97 91 89 84 79 68 58 66 61 73 70 77 65 69 76 60 61 75 95 105 117 114 93 96 96 56 60 67 73 74
39 50 49 58 69 71 73 80 85 82 84 80 79 71 78 68 70 71 67 74 78 66 63 67 65 68 79 66 65 74 68 69 75 79 81 106 120 104 108 104 91 86 91 91 87
Wind_Direction
298 293 291 295 299 302 303 299 292 292 297 293 291 287 283 277 262 172 203 224 218 252 246 241 215 213 203 202 200 216 230 242 219 351 56 53 50 48 36 76 82 311 71 111 114
309 304 297 290 289 291 297 297 295 291 287 291 292 290 285 285 251 228 218 290 266 252 229 187 171 204 184 196 195 187 237 242 288 83 58 50 55 63 72 79 79 31 83 114 121
312 308 303 297 290 283 282 289 291 289 287 285 287 291 287 287 253 209 315 302 223 184 208 215 219 188 189 201 191 201 118 241 344 298 24 59 51 59 64 74 99 95 109 123 128
309 306 304 299 296 290 286 279 277 282 284 282 282 284 288 294 307 351 331 6 56 166 190 188 196 183 192 206 199 212 43 199 322 335 340 74 66 55 31 62 92 105 119 131 136
310 306 302 300 296 291 288 285 277 271 272 276 274 284 313 307 256 330 329 315 105 172 185 187 186 186 184 198 220 243 258 294 293 330 264 70 63 57 29 1 87 100 124 140 143
313 310 305 299 296 290 287 284 279 271 267 259 248 329 349 282 283 328 308 353 129 161 180 192 186 197 200 197 206 263 245 253 286 330 309 87 72 41 57 42 95 111 131 146 154
316 312 307 301 297 291 286 284 278 272 265 251 34 38 341 190 357 353 299 276 294 156 180 193 207 188 198 210 215 232 230 194 328 9 16 122 95 143 106 89 106 126 139 152 163
316 314 309 304 299 293 286 282 278 272 321 353 10 11 340 66 38 61 339 268 261 267 193 205 194 197 198 205 217 199 211 209 115 106 52 153 135 126 100 123 125 146 156 162 170
316 312 309 305 303 298 290 280 274 329 343 358 357 356 339 14 32 101 133 292 271 269 263 250 204 188 197 199 200 197 188 197 317 146 101 163 199 118 115 132 147 153 165 171 173
318 315 312 305 301 299 294 280 333 345 352 347 333 338 321 35 52 40 21 89 273 261 258 230 193 180 186 182 182 173 178 187 151 182 160 159 216 84 117 143 151 157 166 175 177
316 315 313 309 305 301 311 342 338 338 329 311 336 333 358 23 19 0 43 41 161 238 246 218 212 189 185 184 184 192 178 202 272 168 162 156 205 327 106 148 162 157 172 168 177
316 316 313 308 303 301 334 330 329 323 306 281 224 222 219 304 296 193 64 278 230 246 243 243 207 190 188 190 190 199 203 197 266 159 163 165 179 158 145 174 168 168 170 178 175
317 318 315 309 299 325 322 324 335 325 318 307 231 228 229 227 222 225 203 198 208 225 232 240 239 216 208 208 206 197 201 191 218 179 217 252 212 186 262 167 188 175 173 174 179
315 314 315 313 318 317 322 333 327 327 318 310 312 301 281 281 280 221 214 194 212 222 230 249 249 233 241 231 216 204 193 214 262 249 239 230 222 186 193 179 195 177 175 175 176
317 312 316 317 312 315 319 321 320 321 312 343 341 20 205 213 344 264 204 186 207 231 245 234 236 236 232 201 211 237 212 218 256 253 257 244 224 249 196 203 201 202 186 183 181
315 312 312 313 314 308 306 309 311 303 288 299 301 287 227 232 287 308 266 195 226 250 246 244 231 235 250 245 247 249 253 257 260 254 238 246 256 227 234 227 261 217 203 199 194
317 311 303 304 308 323 312 304 292 278 305 287 276 259 247 257 259 272 256 221 222 233 245 246 222 248 247 246 243 243 247 248 246 249 228 251 251 226 256 266 267 264 235 219 205
315 306 309 300 301 296 296 283 275 287 257 311 270 257 243 256 261 262 265 247 229 244 267 255 255 217 232 237 242 235 236 244 248 254 255 256 240 226 232 270 273 269 277 224 191
314 315 306 298 292 284 271 264 272 271 284 272 276 269 250 259 265 262 256 256 248 240 251 260 258 262 226 237 244 241 239 246 252 260 254 257 258 247 264 262 264 269 272 277 207
320 313 303 293 292 275 265 260 271 265 289 278 261 264 262 255 255 262 260 266 261 249 247 265 272 252 237 243 249 244 243 240 245 246 249 255 254 260 258 265 265 262 270 274 246
323 310 316 311 290 270 263 267 265 269 272 267 269 264 261 263 260 254 262 265 267 256 247 252 262 267 240 216 225 243 242 243 247 248 251 252 257 255 269 272 254 245 198 256 271
318 300 323 315 281 275 269 268 270 270 269 263 264 264 262 261 259 262 259 262 260 258 245 246 257 259 261 247 242 246 247 242 246 245 250 253 256 267 257 265 265 256 249 263 224
309 301 303 290 281 278 277 273 268 267 265 263 262 256 258 259 260 257 259 260 263 259 252 239 251 255 257 261 244 232 242 244 243 250 248 250 252 244 278 268 262 259 259 251 286
313 303 303 283 284 281 278 275 272 268 265 265 260 259 254 254 254 255 255 255 254 258 262 257 251 248 253 256 257 251 242 248 246 246 249 250 253 253 258 263 263 263 266 263 270
313 303 310 291 286 301 288 284 272 271 269 261 260 255 253 252 251 251 253 255 250 253 256 252 250 253 254 261 264 258 245 248 248 251 248 252 252 254 253 254 262 263 260 262 270
311 313 305 292 287 286 281 274 273 268 269 262 264 253 251 251 251 250 248 248 248 243 245 244 250 253 253 258 259 261 261 250 254 254 254 251 253 254 253 246 262 257 256 261 264
314 308 308 302 289 281 275 268 273 266 263 259 260 265 251 255 263 260 259 252 244 243 240 242 245 248 251 255 262 258 257 262 262 257 256 255 254 256 256 256 259 259 258 260 265